Location: Ambatotampy
(18.8181°S, 47.6186°E)
Time: 19:08:37
(UTC+00:00)

X-37B - Pass Details

Date: 21 January 2021
Orbit: 383 x 391 km, 45.0° (Epoch: 27 February)

Event Time Altitude Azimuth Distance (km) Brightness Sun altitude
Exits shadow 00:20:32 18° 111° (ESE) 1,036 3.5 -27.6°
Drops below altitude 10° 00:21:32 10° 119° (ESE) 1,417 4.4 -27.4°
Sets 00:23:40 0° 126° (SE) 2,275 5.8 -27.0°
